GW4240 Weather Reports


Display with metric or nautical units.
time (UTC)temp
F
wind
direction
speed
MPH
gust
MPH
rain 1hr
in
rain 24hr
in
rain mn
in
humidity
%
barometer
mb
20260504012023 68 164 2.0 4.0 0.00 0.00 0.00 69 1009.8
20260504011540 68 185 1.0 4.0 0.00 0.00 0.00 70 1009.9
20260504011019 68 163 2.0 4.0 0.00 0.00 0.00 69 1010.1
20260504010523 69 195 2.0 4.0 0.00 0.00 0.00 66 1010.1
20260504010046 71 153 2.0 4.0 0.00 0.00 0.00 65 1010.1
20260504005521 70 147 2.0 4.0 0.00 0.00 0.00 64 1010.2
20260504005023 70 143 2.0 5.0 0.00 0.00 0.00 65 1010.2
20260504004541 70 168 3.0 5.0 0.00 0.00 0.00 63 1010.4
20260504004024 70 165 3.0 6.0 0.00 0.00 0.00 64 1010.4
20260504003523 70 146 2.0 6.0 0.00 0.00 0.00 64 1010.4
20260504003038 71 150 3.0 6.0 0.00 0.00 0.00 62 1010.6
20260504002520 71 146 2.0 4.0 0.00 0.00 0.00 62 1010.5
20260504002020 71 206 1.0 4.0 0.00 0.00 0.00 63 1010.6
20260504001540 71 149 2.0 4.0 0.00 0.00 0.00 63 1010.7
20260504001023 72 202 2.0 5.0 0.00 0.00 0.00 62 1010.7
20260504000523 72 181 2.0 5.0 0.00 0.00 0.00 62 1010.7
20260504000046 73 153 1.0 5.0 0.00 0.00 0.00 61 1010.9
20260503235523 72 218 2.0 5.0 0.00 0.00 0.00 61 1010.9
20260503235023 72 242 2.0 5.0 0.00 0.00 0.00 61 1010.9
20260503234543 72 302 1.0 5.0 0.00 0.00 0.00 59 1011.1
20260503234023 72 272 3.0 6.0 0.00 0.00 0.00 58 1011.1
20260503233523 72 240 3.0 6.0 0.00 0.00 0.00 57 1011.1
20260503233045 72 235 2.0 6.0 0.00 0.00 0.00 59 1011.0
20260503232523 73 224 3.0 6.0 0.00 0.00 0.00 58 1011.1
20260503232022 73 203 3.0 6.0 0.00 0.00 0.00 56 1011.1
20260503231541 74 220 2.0 5.0 0.00 0.00 0.00 60 1011.1
20260503231023 74 218 3.0 7.0 0.00 0.00 0.00 53 1011.2
20260503230526 73 278 4.0 7.0 0.00 0.00 0.00 52 1011.2
20260503230038 72 280 2.0 7.0 0.00 0.00 0.00 55 1011.2
20260503225522 73 70 2.0 7.0 0.00 0.00 0.00 61 1011.3
20260503225022 73 146 1.0 7.0 0.00 0.00 0.00 53 1011.2
20260503224537 73 305 3.0 11.0 0.00 0.00 0.00 53 1011.5
20260503224022 73 247 3.0 11.0 0.00 0.00 0.00 53 1011.4
20260503223522 73 303 5.0 9.0 0.00 0.00 0.00 49 1011.5
20260503223044 73 260 5.0 9.0 0.00 0.00 0.00 51 1011.7
20260503222522 72 288 5.0 9.0 0.00 0.00 0.00 52 1011.8
20260503222022 72 302 5.0 10.0 0.00 0.00 0.00 56 1012.0
20260503221543 72 256 5.0 11.0 0.00 0.00 0.00 54 1012.1
20260503221022 72 285 7.0 11.0 0.00 0.00 0.00 53 1012.2
20260503220522 72 304 7.0 11.0 0.00 0.00 0.00 52 1012.2
20260503220041 72 300 7.0 11.0 0.00 0.00 0.00 54 1012.3
20260503215521 72 248 2.0 8.0 0.00 0.00 0.00 59 1012.4
20260503215021 72 298 3.0 8.0 0.00 0.00 0.00 58 1012.4
20260503214541 72 255 3.0 6.0 0.00 0.00 0.00 57 1012.5
20260503214022 72 217 3.0 6.0 0.00 0.00 0.00 58 1012.5
20260503213522 72 295 3.0 6.0 0.00 0.00 0.00 57 1012.4
20260503213040 72 275 2.0 6.0 0.00 0.00 0.00 60 1012.5
20260503212523 71 250 2.0 5.0 0.00 0.00 0.00 62 1012.7
20260503212023 71 303 2.0 10.0 0.00 0.00 0.00 61 1012.8
20260503211538 71 248 3.0 10.0 0.00 0.00 0.00 62 1012.7
20260503211022 71 285 4.0 9.0 0.00 0.00 0.00 60 1012.8
20260503210522 71 287 2.0 9.0 0.00 0.00 0.00 60 1013.0
20260503210043 71 207 1.0 7.0 0.00 0.00 0.00 61 1013.0
20260503205524 71 234 1.0 6.0 0.00 0.00 0.00 63 1013.1
20260503205022 70 113 0.0 8.0 0.00 0.00 0.00 65 1013.1
20260503204543 69 297 4.0 8.0 0.00 0.00 0.00 60 1013.1
20260503204022 69 295 5.0 8.0 0.00 0.00 0.00 59 1013.2
20260503203522 69 257 4.0 8.0 0.00 0.00 0.00 63 1013.3
20260503203049 69 308 3.0 8.0 0.00 0.00 0.00 62 1013.3
20260503202522 69 309 4.0 8.0 0.00 0.00 0.00 65 1013.3
20260503202021 69 292 4.0 7.0 0.00 0.00 0.00 62 1013.4
20260503201545 69 289 4.0 9.0 0.00 0.00 0.00 62 1013.4
20260503201022 69 299 3.0 9.0 0.00 0.00 0.00 61 1013.5
20260503200521 68 304 4.0 8.0 0.00 0.00 0.00 63 1013.6
20260503200038 68 274 3.0 8.0 0.00 0.00 0.00 63 1013.7
20260503195525 68 289 1.0 8.0 0.00 0.00 0.00 64 1013.8
20260503195021 67 279 3.0 11.0 0.00 0.00 0.00 67 1013.8
20260503194541 67 335 5.0 11.0 0.00 0.00 0.00 66 1013.9
20260503194022 66 321 8.0 13.0 0.00 0.00 0.00 64 1014.0
20260503193522 66 310 7.0 13.0 0.00 0.00 0.00 66 1014.0
20260503193046 66 314 9.0 13.0 0.00 0.00 0.00 66 1014.0
20260503192523 66 298 7.0 11.0 0.00 0.00 0.00 66 1014.0
20260503192022 66 313 7.0 11.0 0.00 0.00 0.00 67 1014.0
20260503191542 66 312 6.0 10.0 0.00 0.00 0.00 68 1013.9
20260503191022 66 280 7.0 10.0 0.00 0.00 0.00 68 1014.1
20260503190522 66 288 7.0 10.0 0.00 0.00 0.00 67 1014.2
20260503190045 67 310 4.0 10.0 0.00 0.00 0.00 65 1014.2
20260503185522 65 263 5.0 10.0 0.00 0.00 0.00 65 1014.2
20260503185022 65 300 7.0 10.0 0.00 0.00 0.00 67 1014.2
20260503184545 66 317 7.0 9.0 0.00 0.00 0.00 66 1014.3
20260503184024 66 311 5.0 8.0 0.00 0.00 0.00 67 1014.2
20260503183523 66 296 6.0 8.0 0.00 0.00 0.00 65 1014.3
20260503183040 66 285 6.0 8.0 0.00 0.00 0.00 67 1014.2
20260503182522 66 319 4.0 7.0 0.00 0.00 0.00 67 1014.3
20260503182024 67 292 4.0 6.0 0.00 0.00 0.00 67 1014.3
20260503181540 67 290 4.0 6.0 0.00 0.00 0.00 65 1014.4
20260503181022 67 307 4.0 6.0 0.00 0.00 0.00 67 1014.4
20260503180521 66 299 4.0 7.0 0.00 0.00 0.00 66 1014.3
20260503180045 66 304 3.0 7.0 0.00 0.00 0.00 66 1014.5
20260503175523 66 282 4.0 7.0 0.00 0.00 0.00 67 1014.6
20260503175022 66 297 4.0 6.0 0.00 0.00 0.00 68 1014.6
20260503174546 66 300 3.0 6.0 0.00 0.00 0.00 69 1014.6
20260503174022 66 276 4.0 6.0 0.00 0.00 0.00 69 1014.6
20260503173522 67 314 2.0 5.0 0.00 0.00 0.00 66 1014.6
20260503173049 67 115 2.0 5.0 0.00 0.00 0.00 68 1014.6
20260503172521 67 137 4.0 5.0 0.00 0.00 0.00 66 1014.5
20260503172021 67 167 2.0 4.0 0.00 0.00 0.00 71 1014.6
20260503171542 67 0 0.0 0.0 0.00 0.00 0.00 68 1014.7
20260503171022 66 0 0.0 3.0 0.00 0.00 0.00 71 1014.7
20260503170522 65 309 0.0 3.0 0.00 0.00 0.00 73 1014.8
20260503150522 59 302 5.0 8.0 0.00 0.00 0.00 85 1015.2
20260503131023 50 0 1.0 1.0 0.00 0.00 0.00 96 1015.0
20260503130523 50 0 0.0 1.0 0.00 0.00 0.00 95 1015.0
20260503110522 51 82 0.0 3.0 0.00 0.00 0.00 93 1015.0
20260503081543 54 299 0.0 1.0 0.00 0.00 0.00 88 1014.7
20260503081022 54 299 1.0 1.0 0.00 0.00 0.00 87 1014.7
20260503080522 54 354 0.0 1.0 0.00 0.00 0.00 87 1014.8
20260503072521 56 0 0.0 1.0 0.00 0.00 0.00 85 1014.6
20260503072021 56 0 0.0 1.0 0.00 0.00 0.00 85 1014.5
20260503071551 57 0 0.0 1.0 0.00 0.00 0.00 85 1014.5
20260503071021 57 0 0.0 1.0 0.00 0.00 0.00 85 1014.4
20260503070521 57 0 0.0 0.0 0.00 0.00 0.00 84 1014.5
20260503060107 62 330 3.0 4.0 0.00 0.00 0.00 72 1014.2
20260503055021 63 340 2.0 6.0 0.00 0.00 0.00 72 1014.0
20260503054539 63 293 4.0 7.0 0.00 0.00 0.00 69 1013.9
20260503054021 63 295 4.0 7.0 0.00 0.00 0.00 69 1014.0
20260503053521 63 314 2.0 5.0 0.00 0.00 0.00 68 1014.0
20260503053042 64 288 1.0 5.0 0.00 0.00 0.00 68 1014.1
20260503052521 63 249 2.0 5.0 0.00 0.00 0.00 67 1014.1
20260503052022 63 237 2.0 4.0 0.00 0.00 0.00 68 1014.0
20260503051541 63 285 0.0 4.0 0.00 0.00 0.00 70 1014.2
20260503051021 63 212 2.0 4.0 0.00 0.00 0.00 69 1014.1
20260503050521 63 58 2.0 4.0 0.00 0.00 0.00 69 1014.2
20260503050041 62 307 1.0 3.0 0.00 0.00 0.00 71 1014.1
20260503045522 61 117 1.0 3.0 0.00 0.00 0.00 75 1014.1
20260503045024 61 139 1.0 3.0 0.00 0.00 0.00 75 1014.2
20260503044541 61 127 1.0 4.0 0.00 0.00 0.00 76 1014.1
20260503044021 62 131 1.0 4.0 0.00 0.00 0.00 75 1014.0
20260503043523 61 264 2.0 4.0 0.00 0.00 0.00 75 1014.0
20260503043048 62 121 0.0 3.0 0.00 0.00 0.00 76 1013.9
20260503042526 62 122 1.0 3.0 0.00 0.00 0.00 75 1013.8
20260503042022 63 0 2.0 6.0 0.00 0.00 0.00 75 1013.8
20260503041542 63 102 1.0 6.0 0.00 0.00 0.00 73 1013.9
20260503041021 63 0 0.0 6.0 0.00 0.00 0.00 74 1013.8
20260503040521 63 67 0.0 3.0 0.00 0.00 0.00 74 1013.7
20260503040053 63 79 2.0 3.0 0.00 0.00 0.00 72 1013.7
20260503035521 64 70 0.0 1.0 0.00 0.00 0.00 69 1013.6
20260503035021 65 0 0.0 1.0 0.00 0.00 0.00 69 1013.6
20260503034544 65 0 0.0 1.0 0.00 0.00 0.00 63 1013.6
20260503034021 66 0 0.0 1.0 0.00 0.00 0.00 64 1013.5
20260503033522 66 0 0.0 1.0 0.00 0.00 0.00 61 1013.5
20260503033040 67 314 0.0 3.0 0.00 0.00 0.00 58 1013.5
20260503032521 67 315 1.0 5.0 0.00 0.00 0.00 58 1013.5
20260503032021 68 89 2.0 6.0 0.00 0.00 0.00 57 1013.4
20260503031537 68 348 3.0 6.0 0.00 0.00 0.00 56 1013.4
20260503031022 69 303 2.0 7.0 0.00 0.00 0.00 54 1013.4
20260503030521 69 322 3.0 7.0 0.00 0.00 0.00 56 1013.4
20260503030036 69 302 4.0 6.0 0.00 0.00 0.00 55 1013.4
20260503025522 69 250 2.0 5.0 0.00 0.00 0.00 54 1013.4
20260503025023 70 292 1.0 7.0 0.00 0.00 0.00 55 1013.3
20260503024543 70 319 2.0 7.0 0.00 0.00 0.00 54 1013.3
20260503024022 70 272 2.0 7.0 0.00 0.00 0.00 56 1013.3
20260503023522 70 301 2.0 4.0 0.00 0.00 0.00 55 1013.2
20260503023043 70 278 1.0 4.0 0.00 0.00 0.00 56 1013.3
20260503022521 70 241 1.0 5.0 0.00 0.00 0.00 56 1013.4
20260503022022 70 293 2.0 7.0 0.00 0.00 0.00 57 1013.3
20260503021550 70 306 3.0 8.0 0.00 0.00 0.00 57 1013.3
20260503021022 70 298 4.0 8.0 0.00 0.00 0.00 57 1013.3
20260503020522 70 305 5.0 8.0 0.00 0.00 0.00 56 1013.4
20260503020048 70 307 4.0 9.0 0.00 0.00 0.00 56 1013.3
20260503015521 70 296 5.0 9.0 0.00 0.00 0.00 56 1013.5
20260503015021 70 303 4.0 9.0 0.00 0.00 0.00 57 1013.5
20260503014537 70 305 4.0 9.0 0.00 0.00 0.00 57 1013.5
20260503014021 70 299 5.0 9.0 0.00 0.00 0.00 57 1013.5
20260503013521 70 276 5.0 11.0 0.00 0.00 0.00 56 1013.6
20260503013045 70 294 5.0 11.0 0.00 0.00 0.00 58 1013.6
20260503012521 70 340 5.0 11.0 0.00 0.00 0.00 59 1013.7